Flag for Germany Weather past 2 weeks in Seelze, Lower Saxony, Germany

Now
30 °F

Ice fog.


Feels Like: 24 °F
Forecast: 28 / 33 °F
Wind: 6 mph from West

Location: Hannover

Current Time: Dec 26, 2014 at 11:52:11 AM

Latest Report: Dec 26, 2014 at 11:20 AM


Visibility: 0 mi

Pressure: 30.36 "Hg

Humidity: 93%

Dew point: 28 °F

Location of SeelzeLocation

Historic Weather in Seelze — Graph

°F

Seelze temperature yesterday

Maximum temperature yesterday: 43 °F (at 10:50 AM)
Minimum temperature yesterday: 34 °F (at 8:50 PM)
Average temperature yesterday: 40 °F

Past Weeks' High & Low Weather Summary

 TemperatureHumidityPressure
High54 °F (Dec 18, 2:20 PM)100% (Dec 14, 7:20 AM)30.36 "Hg (Dec 14, 7:20 AM)
Low27 °F (Dec 26, 7:50 AM)66% (Dec 25, 3:50 PM)29.33 "Hg (Dec 12, 12:50 PM)
Average43 °F87%29.86 "Hg
* Reported Dec 11 10:20 AM — Dec 26 10:50 AM, Seelze, Weather by CustomWeather, © 2014

Note: Actual official high and low records may vary slightly from our data, if they occured in-between our weather recording intervals... More about our weather records

Advertising

Seelze weather history for previous 24 hours

 ConditionsComfort  
Time TempWeatherWind HumidityBarometerVisibility
10:50 AM
Dec 26
30 °FPassing clouds.5 mph100%30.36 "HgN/A
10:20 AM30 °FPassing clouds.3 mph93%30.36 "HgN/A
9:50 AM28 °FSunny.5 mph93%30.36 "Hg10 mi
9:20 AM28 °FScattered clouds.3 mph100%30.36 "HgN/A
8:50 AM28 °FScattered clouds.2 mph93%30.36 "HgN/A
8:20 AM27 °FPassing clouds.2 mph100%30.36 "HgN/A
7:50 AM27 °FPassing clouds.2 mph93%30.36 "HgN/A
7:20 AM30 °FPassing clouds.2 mph86%30.33 "HgN/A
6:50 AM30 °FPassing clouds.2 mph86%30.33 "HgN/A
6:20 AM30 °FPassing clouds.6 mph86%30.33 "HgN/A
5:50 AM30 °FPassing clouds.6 mph86%30.33 "HgN/A
5:20 AM30 °FPassing clouds.3 mph86%30.33 "HgN/A
4:50 AM30 °FPassing clouds.5 mph93%30.33 "HgN/A
3:50 AM30 °FClear.3 mph86%30.33 "Hg10 mi
3:20 AM30 °FClear.5 mph93%30.30 "Hg10 mi
2:50 AM32 °FPassing clouds.5 mph87%30.30 "HgN/A
2:20 AM32 °FPassing clouds.6 mph93%30.30 "HgN/A
1:50 AM34 °FPassing clouds.3 mph87%30.30 "HgN/A
1:20 AM34 °FPassing clouds.5 mph87%30.30 "HgN/A
12:50 AM34 °FPartly cloudy.6 mph87%30.30 "HgN/A
12:20 AM36 °FPartly cloudy.7 mph81%30.27 "HgN/A
11:50 PM
Dec 25
36 °FPartly cloudy.6 mph87%30.27 "HgN/A
11:20 PM36 °FPartly cloudy.3 mph87%30.27 "HgN/A
10:50 PM36 °FPassing clouds.6 mph87%30.27 "HgN/A
10:20 PM36 °FPassing clouds.7 mph87%30.27 "HgN/A
9:50 PM36 °FPartly cloudy.6 mph87%30.24 "HgN/A
9:20 PM36 °FPassing clouds.9 mph87%30.24 "HgN/A
8:50 PM34 °FLight rain. Passing clouds.13 mph93%30.21 "HgN/A
8:20 PM36 °FPassing clouds.15 mph87%30.21 "HgN/A
7:50 PM36 °FMostly cloudy.15 mph93%30.18 "HgN/A
7:20 PM37 °FLight rain. Mostly cloudy.16 mph87%30.18 "HgN/A
6:50 PM37 °FLight rain. Mostly cloudy.18 mph87%30.15 "HgN/A
6:20 PM37 °FLight rain. Mostly cloudy.17 mph93%30.12 "HgN/A
5:50 PM37 °FLight rain. Partly cloudy.20 mph93%30.09 "HgN/A
5:20 PM37 °FSprinkles. Partly cloudy.24 mph93%30.09 "HgN/A
4:20 PM41 °FPassing clouds.23 mph66%30.07 "HgN/A
3:50 PM41 °FScattered clouds.24 mph66%30.07 "HgN/A
3:20 PM41 °FPartly sunny.21 mph70%30.04 "HgN/A
2:50 PM43 °FSprinkles. Partly sunny.18 mph71%30.04 "HgN/A
2:20 PM43 °FPartly sunny.18 mph71%30.04 "HgN/A
1:50 PM43 °FPartly sunny.21 mph76%30.04 "HgN/A
1:20 PM43 °FPartly sunny.20 mph76%30.04 "HgN/A
12:50 PM43 °FPartly sunny.20 mph81%30.04 "HgN/A
12:20 PM43 °FPartly sunny.17 mph81%30.04 "HgN/A
11:50 AM43 °FPartly sunny.20 mph81%30.04 "HgN/A
11:20 AM43 °FPartly sunny.15 mph81%30.01 "HgN/A
Weather by CustomWeather, © 2014

See weather overviewHow to use our weather pages